This demonstration page uses our WeatherBlox Daily Observations layout. Learn more.

Left ArrowRight Arrow

Hourly Observations for June 29, 2022

Temp ( °F °C ) Dew Point ( °F °C ) Humidity (%) Winds ( mph kmh ) Pressure ( in mb ) Visibility ( mi km ) Precip ( " mm )
12:22 am 00:22 Partly Cloudy with Nearby Thunderstorms 64 17.8 56 13.3 75 75 NNW 13 20 29.77 1008 10 16 0.00 0.00
12:37 am 00:37 Mostly Clear 64 17.8 55 12.8 73 73 NNW 7 11 29.75 1008 10 16 0.00 0.00
12:53 am 00:53 Partly Cloudy 65 18.3 55 12.8 70 70 VRB 3 6 29.78 1009 10 16 0.00 0.00
1:53 am 01:53 Clear 61 16.1 56 13.3 84 84 S 8 13 29.78 1008 10 16 0.00 0.00
2:53 am 02:53 Clear 60 15.6 54 12.2 80 80 SSW 5 7 29.78 1008 10 16 0.00 0.00
3:53 am 03:53 Clear 57 13.9 55 12.8 93 93 Calm 29.78 1008 10 16 0.00 0.00
4:36 am 04:36 Partly Cloudy with Nearby Thunderstorms 57 14 55 13 94 94 WNW 8 13 29.80 1009 10 16 0.00 0.00
4:51 am 04:51 Mostly Cloudy 59 15 55 13 88 88 W 7 11 29.79 1009 10 16 0.00 0.00
4:53 am 04:53 Mostly Cloudy 59 15 55 12.8 87 87 W 7 11 29.79 1009 10 16 0.00 0.00
5:53 am 05:53 Partly Cloudy 60 15.6 54 12.2 80 80 W 9 15 29.78 1009 10 16 0.00 0.00
6:53 am 06:53 Sunny 62 16.7 52 11.1 70 70 SW 12 19 29.79 1009 10 16 0.00 0.00
7:53 am 07:53 Sunny 66 18.9 47 8.3 50 50 W 16 26 29.79 1009 10 16 0.00 0.00
8:53 am 08:53 Sunny 70 21.1 44 6.7 39 39 WSW 18 30 29.80 1009 10 16 0.00 0.00
9:53 am 09:53 Sunny 74 23.3 40 4.4 29 29 WSW 22 35 29.79 1009 10 16 0.00 0.00
10:53 am 10:53 Sunny 77 25 37 2.8 24 24 WSW 30 48 29.78 1009 10 16 0.00 0.00
11:53 am 11:53 Sunny 80 26.7 36 2.2 20 20 W 29 46 29.78 1008 10 16 0.00 0.00
12:53 pm 12:53 Sunny 80 26.7 35 1.7 20 20 W 35 56 29.79 1009 10 16 0.00 0.00
1:53 pm 13:53 Sunny 82 27.8 35 1.7 18 18 WNW 23 37 29.79 1009 10 16 0.00 0.00
2:53 pm 14:53 Sunny 81 27.2 32 0 17 17 W 26 43 29.80 1009 10 16 0.00 0.00
3:53 pm 15:53 Sunny 81 27.2 32 0 17 17 W 20 31 29.81 1010 10 16 0.00 0.00
4:53 pm 16:53 Sunny 81 27.2 34 1.1 18 18 W 25 41 29.81 1010 10 16 0.00 0.00
5:53 pm 17:53 Sunny 80 26.7 33 0.6 18 18 W 22 35 29.82 1010 10 16 0.00 0.00
6:53 pm 18:53 Sunny 78 25.6 34 1.1 20 20 W 18 30 29.83 1010 10 16 0.00 0.00
7:53 pm 19:53 Mostly Sunny 76 24.4 36 2.2 23 23 WNW 22 35 29.86 1011 10 16 0.00 0.00
8:53 pm 20:53 Mostly Cloudy 72 22.2 36 2.2 27 27 WNW 17 28 29.88 1012 10 16 0.00 0.00
9:53 pm 21:53 Clear 67 19.4 37 2.8 33 33 WNW 14 22 29.91 1013 10 16 0.00 0.00
10:53 pm 22:53 Clear 64 17.8 39 3.9 40 40 NW 13 20 29.93 1014 10 16 0.00 0.00
11:53 pm 23:53 Clear 58 14.4 41 5 53 53 WNW 7 11 29.96 1015 10 16 0.00 0.00

Powered by AerisWeather